FW0378 Weather Reports


time (UTC)temp
F
wind
direction
speed
knots
gust
knots
rain 1hr
in
rain 24hr
in
rain mn
in
humidity
%
barometer
mb
20260906021518 73 24 4.3 9.6 0.00 0.00 0.00 86 1014.0
20260906020052 73 355 6.1 10.4 0.00 0.00 0.00 87 1014.0
20260906014512 73 57 4.3 7.8 0.00 0.00 0.00 89 1013.8
20260906013034 74 44 3.5 7.0 0.00 0.00 0.00 88 1013.6
20260906011546 74 69 3.5 7.0 0.00 0.00 0.00 87 1013.6
20260906010003 74 34 2.6 5.2 0.00 0.00 0.00 87 1013.5
20260906004524 75 5 2.6 4.3 0.00 0.00 0.00 86 1013.2
20260906003044 76 44 1.7 4.3 0.00 0.00 0.00 84 1013.0
20260906001556 76 67 3.5 7.0 0.00 0.00 0.00 83 1012.7
20260906000002 77 70 3.5 7.0 0.00 0.00 0.00 82 1012.7
20260905234533 78 44 2.6 6.1 0.00 0.00 0.00 81 1012.8
20260905233042 79 54 6.1 11.3 0.00 0.00 0.00 79 1012.7
20260905231553 79 40 6.1 11.3 0.00 0.00 0.00 79 1012.6
20260905230130 80 51 7.0 12.2 0.00 0.00 0.00 77 1012.3
20260905224518 81 60 7.8 13.0 0.00 0.00 0.00 76 1012.2
20260905223036 82 51 7.8 13.0 0.00 0.00 0.00 75 1012.0
20260905221602 83 355 5.2 10.4 0.00 0.00 0.00 76 1012.0
20260905220026 83 65 5.2 11.3 0.00 0.00 0.00 76 1012.0
20260905214548 82 15 5.2 12.2 0.00 0.00 0.00 75 1011.9
20260905213004 84 63 6.1 13.0 0.00 0.00 0.00 73 1011.6
20260905211531 85 78 7.0 13.0 0.00 0.00 0.00 73 1011.5
20260905210052 85 59 6.1 13.0 0.00 0.00 0.00 72 1011.6
20260905204504 87 17 6.1 12.2 0.00 0.00 0.00 71 1011.5
20260905203034 86 71 6.1 12.2 0.00 0.00 0.00 71 1011.5
20260905201553 87 44 6.1 10.4 0.00 0.00 0.00 70 1011.5
20260905200021 89 351 6.1 9.6 0.00 0.00 0.00 69 1011.5
20260905194540 88 25 3.5 7.0 0.00 0.00 0.00 70 1011.5
20260905193110 87 13 5.2 8.7 0.00 0.00 0.00 71 1011.6
20260905191511 88 51 3.5 9.6 0.00 0.00 0.00 72 1011.6
20260905190034 87 32 4.3 7.8 0.00 0.00 0.00 74 1011.7
20260905184600 88 34 3.5 9.6 0.00 0.00 0.00 73 1011.8
20260905183007 88 39 2.6 6.1 0.00 0.00 0.00 73 1011.9
20260905181539 89 14 2.6 7.8 0.00 0.00 0.00 73 1012.0
20260905174528 89 44 3.5 7.8 0.00 0.00 0.00 73 1012.0
20260905173101 88 38 3.5 9.6 0.00 0.00 0.00 75 1012.0
20260905171533 88 24 3.5 6.1 0.00 0.00 0.00 75 1012.1
20260905170054 88 57 5.2 7.8 0.00 0.00 0.00 76 1012.2
20260905164517 88 5 4.3 7.8 0.00 0.00 0.00 75 1012.3
20260905163042 88 37 4.3 7.0 0.00 0.00 0.00 76 1012.2
20260905161502 88 14 2.6 6.1 0.00 0.00 0.00 77 1012.2
20260905160038 88 36 2.6 6.1 0.00 0.00 0.00 79 1012.1
20260905154502 88 73 2.6 5.2 0.00 0.00 0.00 78 1012.1
20260905153029 87 5 1.7 5.2 0.00 0.00 0.00 79 1012.0
20260905151552 87 347 1.7 5.2 0.00 0.00 0.00 79 1011.9
20260905150002 86 17 2.6 6.1 0.00 0.00 0.00 80 1011.9
20260905144533 85 31 2.6 5.2 0.00 0.00 0.00 81 1011.8
20260905143058 85 31 1.7 5.2 0.00 0.00 0.00 82 1011.7
20260905141524 84 45 0.0 4.3 0.00 0.00 0.00 85 1011.6
20260905140050 83 279 0.9 3.5 0.00 0.00 0.00 89 1011.7
20260905134508 81 279 0.0 2.6 0.00 0.00 0.00 91 1012.1
20260905133042 80 275 0.9 1.7 0.00 0.00 0.00 93 1011.9
20260905131552 79 254 0.9 3.5 0.00 0.00 0.00 94 1011.7
20260905130026 77 238 2.6 4.3 0.00 0.00 0.00 95 1011.4
20260905124544 76 221 1.7 2.6 0.00 0.00 0.00 96 1011.4
20260905123106 75 25 0.0 0.9 0.00 0.00 0.00 96 1011.5
20260905121533 75 24 0.0 0.0 0.00 0.00 0.00 97 1011.2
20260905120055 74 25 0.0 0.0 0.00 0.00 0.00 96 1011.2
20260905114520 74 24 0.0 0.0 0.00 0.00 0.00 96 1011.0
20260905113104 74 25 0.0 0.9 0.00 0.00 0.00 96 1011.2
20260905111513 74 19 0.0 0.9 0.00 0.00 0.00 96 1011.0
20260905110037 74 11 0.0 1.7 0.00 0.00 0.00 96 1010.7
20260905104504 74 11 0.0 1.7 0.00 0.00 0.00 95 1010.7
20260905103044 74 355 0.0 1.7 0.00 0.00 0.00 95 1010.8
20260905101512 74 231 0.0 0.9 0.00 0.00 0.00 95 1010.9
20260905100040 75 231 0.0 0.9 0.00 0.00 0.00 95 1010.8
20260905094548 75 231 0.0 0.9 0.00 0.00 0.00 95 1010.7
20260905093026 75 231 0.0 0.0 0.00 0.00 0.00 95 1010.7
20260905091537 75 231 0.0 0.9 0.00 0.00 0.00 95 1010.8
20260905084521 75 231 0.0 1.7 0.00 0.00 0.00 94 1010.8
20260905083045 75 231 0.0 0.9 0.00 0.00 0.00 94 1010.8
20260905081522 75 231 0.0 0.9 0.00 0.00 0.00 94 1010.9
20260905080043 75 221 0.0 0.9 0.00 0.00 0.00 93 1010.8
20260905074559 75 221 0.0 0.9 0.00 0.00 0.00 93 1010.8
20260905074502 75 221 0.0 0.9 0.00 0.00 0.00 93 1010.8
20260905073033 76 221 0.0 0.0 0.00 0.00 0.00 93 1010.8
20260905071547 76 221 0.0 0.0 0.00 0.00 0.00 93 1010.8
20260905070108 76 221 0.0 1.7 0.00 0.00 0.00 92 1010.9
20260905064531 77 221 0.0 3.5 0.00 0.00 0.00 92 1010.9
20260905063048 77 233 0.0 3.5 0.00 0.00 0.00 92 1011.1
20260905061509 77 212 0.0 1.7 0.00 0.00 0.00 92 1011.1
20260905060037 77 227 0.9 1.7 0.00 0.00 0.00 92 1011.2
20260905054503 77 211 0.9 3.5 0.00 0.00 0.00 91 1011.1
20260905053029 78 233 0.0 1.7 0.00 0.00 0.00 91 1011.2
20260905051555 78 233 0.0 1.7 0.00 0.00 0.00 90 1011.4
20260905050012 79 233 0.0 0.9 0.00 0.00 0.00 90 1011.4
20260905044531 79 233 0.0 1.7 0.00 0.00 0.00 90 1011.4
20260905043057 79 233 0.0 1.7 0.00 0.00 0.00 91 1011.6
20260905041517 79 232 1.7 3.5 0.00 0.00 0.00 92 1011.5
20260905040055 79 238 0.0 1.7 0.00 0.00 0.00 93 1011.8
20260905034517 79 249 0.9 1.7 0.00 0.00 0.00 93 1011.6
20260905033039 79 249 0.0 1.7 0.00 0.00 0.00 93 1011.8
20260905031506 79 249 0.0 0.9 0.00 0.00 0.00 91 1011.7
20260905030031 79 249 0.0 0.0 0.00 0.00 0.00 90 1011.6
20260905024547 80 249 0.0 0.9 0.00 0.00 0.00 89 1011.5
20260905023005 81 249 0.0 0.0 0.00 0.00 0.00 88 1011.3